Regional Weather Roundup
Issued by NWS

Home | Current Version | Previous Version | Graphics & Text | Print | Product List | Glossary On
Versions: 1 2 3 4 5 6 7 8 9 10 11 12 13 14 15 16 17 18 19 20 21 22 23 24 25 26 27
000
ASUS45 KSLC 250510
RWRUT

UTAH REGIONAL WEATHER ROUNDUP
NATIONAL WEATHER SERVICE SALT LAKE CITY UT
1100 PM MDT SUN JUL 24 2016

UTZ001>011-023>025-250600-

NORTHERN UTAH

CITY           SKY/WX    TMP DP  RH WIND       PRES   REMARKS
BRIGHAM CITY     N/A     75  37  25 CALM      30.05S
HILL AFB       CLEAR     76  29  17 E12       30.08R
LOGAN          CLEAR     61  47  59 NW7       30.09R
OGDEN          CLEAR     74  32  21 S6        30.05R
PROVO AIRPORT  CLEAR     73  54  49 CALM      30.05S
SALT LAKE CITY CLEAR     80  37  21 SE6       30.02S
VERNAL         CLEAR     67  38  34 NW3       30.12R
WENDOVER       CLEAR     79  28  15 NW7       30.04R
HEBER CITY     CLEAR     61  41  48 CALM      30.15R

$$

UTZ012>022-026-027-250600-

SOUTHERN/CENTRAL UTAH

CITY           SKY/WX    TMP DP  RH WIND       PRES   REMARKS
BLANDING       MOCLDY    79  41  25 S9        30.27S
BRYCE CANYON   CLEAR     56  41  57 SW8       30.38R
CEDAR CITY     CLEAR     72  46  39 SE3       30.15R
DELTA          PTCLDY    77  27  15 SE5       30.06R
MILFORD        PTCLDY    74  39  28 W9        30.07S
MOAB/CYNLANDS  PTCLDY    89  37  16 W14       30.02R
PRICE          PTCLDY    75  20  12 SE3       30.16R
ST GEORGE      CLEAR     91  39  16 E8        29.94R
KANAB          CLEAR     73  46  38 N3        30.16R

$$

REGIONAL REPORTS     COLORADO/ARIZONA

CITY           SKY/WX    TMP DP  RH WIND       PRES   REMARKS
CRAIG, CO      CLEAR     68  43  40 CALM      30.22R
GRAND JUNCTION CLOUDY    81  37  20 SE8       30.05S
RIFLE          CLEAR     73  43  33 S6        30.15R
MONTROSE       CLEAR     74  43  32 SE9       30.19R
CORTEZ         PTCLDY    80  42  25 S6        30.22R
PAGE, AZ       MOCLDY    85  45  24 SW9G16    30.06R
GRAND CANYON   PTCLDY    61  52  72 CALM      30.30R
KINGMAN        PTCLDY    88  55  32 SW12      30.01S
FLAGSTAFF      MOCLDY    67  42  40 CALM      30.32F

$$

REGIONAL REPORTS    NEVADA/IDAHO/WYOMING

CITY           SKY/WX    TMP DP  RH WIND       PRES   REMARKS
LAS VEGAS, NV  CLEAR    102  43  13 S8        29.79R HX  97
ELY            PTCLDY    74  25  16 S12       30.14R
ELKO           CLEAR     73  19  13 E6        30.08R
POCATELLO, ID  CLEAR     67  30  25 CALM      30.09R
BURLEY         CLEAR     62  49  62 S6        30.05R
EVANSTON, WY   CLEAR     66  18  15 SE7       30.30R
ROCK SPRINGS   CLEAR     69  11  10 W8        30.25S
KEMMERER         N/A    N/A N/A N/A N10       30.30F

$$




USA.gov is the U.S. government's official web portal to all federal, state and local government web resources and services.